sat.trackr.live / text

‹ back to catalog

STARLINK-33762

NORAD 63442 · 2025-069K

PAYLOAD ACTIVE UNKNOWN

§ Identity

Operator
Country
US
Launch date
2025-04-04
Launch site
AFWTR
Launch vehicle
Mass (kg)
RCS (m²)

Purposes: comms

External: N2YO · Heavens-Above · Gunter

§ Orbital elements

Epoch: 2026-05-24T23:59:50.680896Z

Period
93.37 min
Inclination
53.1586°
Eccentricity
0.0001953
Mean motion
15.42191696 rev/d
Perigee alt
438.3 km
Apogee alt
441.0 km
Semi-major
6,817.8 km
B*
8.9462e-4
RAAN
145.5080°
Arg perigee
84.9846°
Mean anomaly
275.1383°
Rev number
6,512

§ Raw data

STARLINK-337621 63442U 25069K   26144.99989214  .00038757  00000+0  89462-3 0  99902 63442  53.1586 145.5080 0001953  84.9846 275.1383 15.42191696 65126

JSON: /api/v1/satellites/63442 · /tle

For live sub-satellite position, see the globe view (requires WebGL).

§ Visibility from observer

Set your observer location to see the next 7 days of passes ≥ 10°. The values pass through the URL so the page stays shareable.

No JS? Fill the form by hand. The geolocation button needs JavaScript.